This demonstration page uses our WeatherBlox Daily Observations layout. Learn more.

Left ArrowRight Arrow

Hourly Observations for October 11, 2020

Temp ( °F °C ) Dew Point ( °F °C ) Humidity (%) Winds ( mph kmh ) Pressure ( in mb ) Visibility ( mi km ) Precip ( " mm )
12:15 am 00:15 Clear 59 15 59 15 100 100 NNE 3 6 29.94 1014 10 16 N/A
12:35 am 00:35 Clear 55 13 55 13 100 100 N N/A 29.96 1015 7 11 N/A
12:55 am 00:55 Mostly Cloudy 55 13 55 13 100 100 SSE 5 7 29.96 1015 2 3 N/A
1:15 am 01:15 Clear 61 16 61 16 100 100 N N/A 29.95 1014 7 11 N/A
1:35 am 01:35 Clear 59 15 59 15 100 100 N N/A 29.95 1014 3 5 N/A
1:55 am 01:55 Mostly Cloudy 59 15 59 15 100 100 N N/A 29.93 1014 1 1 N/A
2:15 am 02:15 Cloudy 55 13 55 13 100 100 N N/A 29.94 1014 0 0 N/A
2:35 am 02:35 Cloudy 55 13 55 13 100 100 N N/A 29.94 1014 0 0 N/A
2:55 am 02:55 Cloudy 52 11 52 11 100 100 N N/A 29.95 1014 N/A N/A
3:15 am 03:15 Cloudy 54 12 54 12 100 100 N N/A 29.94 1014 N/A N/A
3:35 am 03:35 Cloudy 52 11 52 11 100 100 N N/A 29.95 1014 0 0 N/A
3:55 am 03:55 Cloudy 54 12 54 12 100 100 N N/A 29.94 1014 N/A N/A
4:15 am 04:15 Cloudy 52 11 52 11 100 100 NNE 5 7 29.94 1014 0 0 N/A
4:35 am 04:35 Cloudy 55 13 55 13 100 100 NNE 5 7 29.93 1014 0 0 N/A
4:55 am 04:55 Cloudy 55 13 55 13 100 100 NNE 3 6 29.93 1014 0 0 N/A
5:15 am 05:15 Cloudy 57 14 57 14 100 100 N N/A 29.93 1013 0 0 N/A
5:35 am 05:35 Cloudy 57 14 57 14 100 100 NE 5 7 29.93 1013 1 1 N/A
5:55 am 05:55 Cloudy 57 14 57 14 100 100 N 3 6 29.93 1013 1 1 N/A
6:15 am 06:15 Cloudy 57 14 57 14 100 100 N 5 7 29.93 1013 0 0 N/A
6:35 am 06:35 Cloudy 57 14 57 14 100 100 NNE 3 6 29.93 1013 0 0 N/A
6:55 am 06:55 Cloudy 57 14 57 14 100 100 N N/A 29.93 1013 1 1 N/A
7:15 am 07:15 Cloudy 57 14 57 14 100 100 N N/A 29.94 1014 1 1 N/A
7:35 am 07:35 Cloudy 59 15 59 15 100 100 NE 6 9 29.93 1014 1 1 N/A
7:55 am 07:55 Cloudy 59 15 59 15 100 100 ENE 3 6 29.93 1014 1 1 N/A
8:15 am 08:15 Cloudy 61 16 61 16 100 100 NE 5 7 29.93 1014 0 0 N/A
8:35 am 08:35 Cloudy 61 16 61 16 100 100 ENE 6 9 29.93 1014 1 1 N/A
8:55 am 08:55 Cloudy 61 16 61 16 100 100 NE 9 15 29.94 1014 1 1 N/A
9:15 am 09:15 Cloudy 61 16 61 16 100 100 NE 8 13 29.95 1014 1 1 N/A
9:35 am 09:35 Cloudy 61 16 61 16 100 100 NNE 9 15 29.95 1014 1 1 N/A
9:55 am 09:55 Cloudy 61 16 61 16 100 100 NE 8 13 29.95 1014 1 2 N/A
10:15 am 10:15 Cloudy 63 17 63 17 100 100 ENE 8 13 29.96 1014 2 2 N/A
10:35 am 10:35 Cloudy 63 17 63 17 100 100 ENE 9 15 29.96 1014 2 3 N/A
10:55 am 10:55 Cloudy 63 17 63 17 100 100 ENE 8 13 29.96 1014 3 4 N/A
11:15 am 11:15 Cloudy 64 18 64 18 100 100 ENE 8 13 29.95 1014 4 6 N/A
11:35 am 11:35 Cloudy 66 19 66 19 100 100 ENE 9 15 29.95 1014 5 8 N/A
11:55 am 11:55 Cloudy 70 21 70 21 100 100 ENE 8 13 29.95 1014 7 11 N/A
12:15 pm 12:15 Cloudy 72 22 70 21 94 94 ENE 9 15 29.93 1014 10 16 N/A
12:35 pm 12:35 Cloudy 73 23 70 21 89 89 E 12 19 29.93 1014 10 16 N/A
12:55 pm 12:55 Cloudy 75 24 68 20 78 78 E 13 20 29.92 1013 10 16 N/A
1:15 pm 13:15 Cloudy 73 23 68 20 83 83 E 13 20 29.92 1013 10 16 N/A
1:35 pm 13:35 Cloudy 73 23 68 20 83 83 E 14 22 29.91 1013 10 16 N/A
1:55 pm 13:55 Cloudy 73 23 68 20 83 83 E 10 17 29.90 1012 10 16 N/A
2:15 pm 14:15 Mostly Cloudy 75 24 68 20 78 78 ENE 12 19 29.89 1012 10 16 N/A
2:35 pm 14:35 Partly Cloudy 77 25 68 20 74 74 E 12 19 29.87 1012 10 16 N/A
2:55 pm 14:55 Partly Cloudy 77 25 68 20 74 74 ENE 14 22 29.87 1012 10 16 N/A
3:15 pm 15:15 Partly Cloudy 79 26 68 20 70 70 ENE 12 19 29.86 1011 10 16 N/A
3:35 pm 15:35 Partly Cloudy 77 25 66 19 69 69 E 9 15 29.86 1011 10 16 N/A
3:55 pm 15:55 Mostly Cloudy 77 25 68 20 74 74 E 12 19 29.86 1011 10 16 N/A
4:15 pm 16:15 Partly Cloudy 79 26 68 20 70 70 E 10 17 29.86 1011 10 16 N/A
4:35 pm 16:35 Partly Cloudy 75 24 66 19 74 74 ENE 13 20 29.87 1011 10 16 N/A
4:55 pm 16:55 Mostly Cloudy 75 24 68 20 78 78 ENE 12 19 29.87 1011 10 16 N/A
5:15 pm 17:15 Cloudy 75 24 68 20 78 78 ENE 12 19 29.86 1011 10 16 N/A
5:35 pm 17:35 Mostly Cloudy 73 23 68 20 83 83 ENE 10 17 29.86 1011 10 16 N/A
5:55 pm 17:55 Mostly Cloudy 73 23 66 19 78 78 E 10 17 29.86 1011 10 16 N/A
6:15 pm 18:15 Mostly Cloudy 73 23 68 20 83 83 E 10 17 29.87 1011 10 16 N/A
6:35 pm 18:35 Cloudy 73 23 66 19 78 78 ENE 14 22 29.87 1011 10 16 N/A
6:55 pm 18:55 Partly Cloudy 72 22 66 19 83 83 E 10 17 29.87 1012 10 16 N/A
7:15 pm 19:15 Partly Cloudy 70 21 66 19 88 88 ENE 7 11 29.89 1012 10 16 N/A
7:35 pm 19:35 Partly Cloudy 68 20 66 19 94 94 ENE 7 11 29.89 1012 10 16 N/A
7:55 pm 19:55 Clear 64 18 64 18 100 100 ENE 5 7 29.90 1013 10 16 N/A
8:15 pm 20:15 Clear 64 18 64 18 100 100 ENE 6 9 29.90 1013 10 16 N/A
8:35 pm 20:35 Clear 64 18 64 18 100 100 ENE 5 7 29.90 1013 10 16 N/A
8:55 pm 20:55 Clear 61 16 61 16 100 100 ENE 6 9 29.91 1013 10 16 N/A
9:15 pm 21:15 Clear 61 16 61 16 100 100 ENE 7 11 29.91 1013 10 16 N/A
9:35 pm 21:35 Clear 61 16 61 16 100 100 E 6 9 29.91 1013 10 16 N/A
9:55 pm 21:55 Clear 63 17 63 17 100 100 E 8 13 29.91 1013 10 16 N/A
10:15 pm 22:15 Clear 63 17 63 17 100 100 ENE 9 15 29.90 1012 10 16 N/A
10:35 pm 22:35 Clear 63 17 63 17 100 100 ENE 7 11 29.90 1012 10 16 N/A
10:55 pm 22:55 Clear 63 17 63 17 100 100 ENE 6 9 29.90 1012 10 16 N/A
11:15 pm 23:15 Clear 61 16 61 16 100 100 ENE 3 6 29.90 1013 10 16 N/A
11:35 pm 23:35 Clear 59 15 59 15 100 100 ENE 5 7 29.90 1013 10 16 N/A
11:55 pm 23:55 Clear 59 15 59 15 100 100 E 5 7 29.90 1013 10 16 N/A

Powered by AerisWeather